TimePDT,TemperatureF,Dew PointF,Humidity,Sea Level PressureIn,VisibilityMPH,Wind Direction,Wind SpeedMPH,Gust SpeedMPH,PrecipitationIn,Events,Conditions,WindDirDegrees,DateUTC
12:53 AM,61.0,12.9,15,29.88,10.0,NW,6.9,-,N/A,,Clear,310,2013-04-25 07:53:00
1:53 AM,60.1,16.0,18,29.87,10.0,West,6.9,-,N/A,,Clear,280,2013-04-25 08:53:00
2:53 AM,60.1,12.9,16,29.87,10.0,Calm,Calm,-,N/A,,Clear,0,2013-04-25 09:53:00
3:53 AM,59.0,14.0,17,29.87,10.0,Variable,4.6,-,N/A,,Clear,0,2013-04-25 10:53:00
4:53 AM,57.9,10.9,16,29.87,10.0,NW,6.9,-,N/A,,Clear,310,2013-04-25 11:53:00
5:53 AM,59.0,15.1,18,29.88,10.0,NNW,5.8,-,N/A,,Clear,330,2013-04-25 12:53:00
6:53 AM,61.0,14.0,16,29.91,10.0,Calm,Calm,-,N/A,,Clear,0,2013-04-25 13:53:00
7:53 AM,64.9,15.1,15,29.91,10.0,NW,4.6,-,N/A,,Clear,310,2013-04-25 14:53:00
8:53 AM,70.0,14.0,12,29.92,10.0,North,8.1,-,N/A,,Clear,350,2013-04-25 15:53:00
9:53 AM,73.9,10.9,9,29.93,10.0,North,5.8,-,N/A,,Clear,10,2013-04-25 16:53:00
10:53 AM,75.0,10.0,8,29.93,10.0,SSE,4.6,-,N/A,,Clear,150,2013-04-25 17:53:00
11:53 AM,75.9,10.0,8,29.92,10.0,Calm,Calm,-,N/A,,Clear,0,2013-04-25 18:53:00
12:53 PM,79.0,9.0,7,29.90,10.0,Variable,5.8,-,N/A,,Clear,0,2013-04-25 19:53:00
1:53 PM,80.1,9.0,7,29.89,10.0,SSE,4.6,-,N/A,,Clear,150,2013-04-25 20:53:00
2:53 PM,81.0,9.0,6,29.87,10.0,Variable,5.8,-,N/A,,Clear,0,2013-04-25 21:53:00
3:53 PM,82.9,9.0,6,29.84,10.0,SSE,4.6,-,N/A,,Clear,150,2013-04-25 22:53:00
4:53 PM,82.9,9.0,6,29.84,10.0,South,10.4,16.1,N/A,,Clear,180,2013-04-25 23:53:00
5:53 PM,82.9,8.1,6,29.84,10.0,Variable,5.8,-,N/A,,Clear,0,2013-04-26 00:53:00
6:53 PM,82.0,9.0,6,29.84,10.0,South,8.1,-,N/A,,Clear,190,2013-04-26 01:53:00
7:53 PM,79.0,10.9,8,29.85,10.0,SSW,5.8,-,N/A,,Clear,210,2013-04-26 02:53:00
8:53 PM,77.0,10.9,8,29.88,10.0,South,9.2,-,N/A,,Clear,190,2013-04-26 03:53:00
9:53 PM,73.9,12.0,9,29.90,10.0,SSW,8.1,-,N/A,,Clear,200,2013-04-26 04:53:00
10:53 PM,71.1,14.0,11,29.92,10.0,WNW,6.9,-,N/A,,Clear,290,2013-04-26 05:53:00
11:53 PM,66.2,23.0,19,29.94,10.0,West,5.8,-,N/A,,Clear,280,2013-04-26 06:53:00